This is the latest recevied weather packets stored in our database for station/object OK2CME-6. If no packets are shown the sender has not sent any weather packets the latest 10 day(s).
| Time | Temp. | Humidity | Pressure | Rain* | Wind** | Luminosity | Snow |
|---|---|---|---|---|---|---|---|
| 1777635314 | 15.56° C | 45% | 1030 hPa | 0 mm | - | 369 W/m² | - |
| 1777634114 | 15.56° C | 46% | 1030 hPa | 0 mm | - | 245 W/m² | - |
| 1777632914 | 14.44° C | 48% | 1030.1 hPa | 0 mm | - | 259 W/m² | - |
| 1777631714 | 15° C | 47% | 1030.5 hPa | 0 mm | - | 457 W/m² | - |
| 1777630514 | 13.89° C | 48% | 1030.6 hPa | 0 mm | - | 345 W/m² | - |
| 1777629314 | 13.89° C | 48% | 1030.4 hPa | 0 mm | - | 477 W/m² | - |
| 1777628114 | 13.89° C | 46% | 1030.7 hPa | 0 mm | - | 504 W/m² | - |
| 1777626914 | 13.33° C | 49% | 1030.7 hPa | 0 mm | - | 381 W/m² | - |
| 1777625714 | 13.33° C | 51% | 1030.6 hPa | 0 mm | - | 370 W/m² | - |
| 1777624514 | 13.89° C | 50% | 1030.8 hPa | 0 mm | - | 392 W/m² | - |
| 1777623314 | 12.78° C | 52% | 1031.1 hPa | 0 mm | - | 406 W/m² | - |
| 1777622114 | 12.22° C | 53% | 1030.8 hPa | 0 mm | - | 283 W/m² | - |
| 1777620914 | 12.22° C | 52% | 1030.7 hPa | 0 mm | - | 290 W/m² | - |
| 1777619714 | 12.22° C | 54% | 1030.4 hPa | 0 mm | - | 349 W/m² | - |
| 1777618514 | 11.67° C | 54% | 1030.5 hPa | 0 mm | - | 301 W/m² | - |
| 1777616199 | 10° C | 57% | 1030.4 hPa | 0 mm | - | 126 W/m² | - |
| 1777614999 | 10° C | 57% | 1030.3 hPa | 0 mm | - | 185 W/m² | - |
| 1777613799 | 8.89° C | 59% | 1030.4 hPa | 0 mm | - | 112 W/m² | - |
| 1777612599 | 8.33° C | 59% | 1030.3 hPa | 0 mm | - | 49 W/m² | - |
| 1777611399 | 7.78° C | 59% | 1030.3 hPa | 0 mm | - | 36 W/m² | - |
| 1777610199 | 7.78° C | 59% | 1030.3 hPa | 0 mm | - | 20 W/m² | - |
| 1777608999 | 7.78° C | 60% | 1030.4 hPa | 0 mm | - | 7 W/m² | - |
| 1777607799 | 7.22° C | 60% | 1030.2 hPa | 0 mm | - | 2 W/m² | - |
| 1777606599 | 6.67° C | 63% | 1030.3 hPa | 0 mm | - | 0 W/m² | - |
| 1777605399 | 6.67° C | 63% | 1030.3 hPa | 0 mm | - | 0 W/m² | - |
* Rain latest hour (hover to see other rain measurements)
** Current wind speed in m/s (hover to see current wind gust speed)